Rankin Inlet, Nunavut

1:35 AM CDT on August 17, 2017 (GMT -0500)
Rankin Inlet

Weather History for CYRT - May, 2014

Change the Weather History Date:

Tuesday, May 13, 2014

  Actual Average Record
Temperature  
Mean Temperature 25 °F -  
Max Temperature 27 °F 34 °F 37 °F (2015)
Min Temperature 23 °F 23 °F 5 °F (1997)
Degree Days  
Heating Degree Days 40    
Moisture  
Dew Point 21 °F    
Average Humidity 81    
Maximum Humidity 100    
Minimum Humidity 62    
Precipitation  
Precipitation 0.00 in - - ()
Sea Level Pressure  
Sea Level Pressure 30.40 in    
Wind  
Wind Speed 10 mph ()    
Max Wind Speed 21 mph    
Max Gust Speed 24 mph    
Visibility 14.4 miles    
Events Snow    
Averages and records for this station are not official NWS values.
T = Trace of Precipitation, MM = Missing Value Source: Averaged Metar Reports

Daily Weather History Graph

Daily Weather History Graph

Search for Another Location

Airport or City:

Trip Planner

Search our weather history database for the weather conditions in past years. The results will help you decide how hot, cold, wet, or windy it might be!

Date:

Astronomy

May. 13, 2014 Rise Set
Actual Time 4:12 AM CDT 9:58 PM CDT
Civil Twilight 2:54 AM CDT 11:19 PM CDT
Nautical Twilight Sun does not set Sun does not set
Astronomical Twilight Sun does not set Sun does not set
Moon 8:33 PM CDT (5/13) 4:09 AM CDT (5/13)
Length of Visible Light 20h 25m
Length of Day
17h 45m
Waxing Gibbous, 99% of the Moon is Illuminated
May 13
Waxing Gibbous
May 14
Full
May 21
Last Quarter
May 28
New
Jun 5
First Quarter

Hourly Weather History & Observations

Time (CDT) Temp. Windchill Dew Point Humidity Pressure Visibility Wind Dir Wind Speed Gust Speed Precip Events Conditions
12:00 AM 24.8 °F 17.9 °F 21.2 °F 86% 30.43 in 15.0 mi SSW 5.8 mph - N/A   Mostly Cloudy
1:00 AM 24 °F - 22 °F 89% 30.43 in 15 mi SSW 5.8 mph - -   Partly Cloudy
1:00 AM 24.8 °F 17.9 °F 21.2 °F 86% 30.42 in 15.0 mi SSW 5.8 mph - N/A   Mostly Cloudy
2:00 AM 24.8 °F 16.9 °F 23.0 °F 93% 30.42 in 15.0 mi SW 6.9 mph - N/A   Mostly Cloudy
3:00 AM 24.8 °F 17.9 °F 24.8 °F 100% 30.42 in 15.0 mi SW 5.8 mph - N/A   Overcast
3:13 AM 24.8 °F 17.9 °F 24.8 °F 100% 30.42 in 12.0 mi SW 5.8 mph - N/A Snow Light Snow
4:00 AM 26.6 °F 21.2 °F 24.8 °F 93% 30.41 in 6.0 mi NW 4.6 mph - N/A Snow Light Snow
5:00 AM 26.6 °F 13.8 °F 23.0 °F 86% 30.42 in 12.0 mi North 17.3 mph - N/A Snow Light Snow
6:00 AM 26.6 °F 14.3 °F 21.2 °F 80% 30.43 in 15.0 mi North 16.1 mph - N/A Snow Light Snow
6:35 AM 26.6 °F 14.7 °F 23.0 °F 86% 30.43 in 15.0 mi North 15.0 mph - N/A   Overcast
7:00 AM 26 °F - 22 °F 80% 30.44 in 15 mi North 16.1 mph - - Snow Light Snow
7:00 AM 26.6 °F 14.3 °F 23.0 °F 86% 30.43 in 15.0 mi North 16.1 mph - N/A   Overcast
8:00 AM 24.8 °F 10.3 °F 21.2 °F 86% 30.43 in 15.0 mi North 20.7 mph - N/A   Overcast
11:00 AM 26.6 °F 14.7 °F 21.2 °F 80% 30.42 in 15.0 mi North 15.0 mph - N/A   Overcast
1:00 PM 26 °F - 20 °F 68% 30.44 in 15 mi North 15.0 mph - -   Overcast
1:00 PM 26.6 °F 14.7 °F 19.4 °F 74% 30.44 in 15.0 mi NNW 15.0 mph - N/A   Overcast
2:00 PM 26.6 °F 13.8 °F 17.6 °F 69% 30.42 in 15.0 mi North 17.3 mph - N/A   Overcast
3:00 PM 26.6 °F 14.3 °F 17.6 °F 69% 30.41 in 15.0 mi North 16.1 mph - N/A   Mostly Cloudy
4:00 PM 26.6 °F 14.7 °F 19.4 °F 74% 30.40 in 15.0 mi North 15.0 mph - N/A   Mostly Cloudy
5:00 PM 26.6 °F 15.2 °F 19.4 °F 74% 30.39 in 15.0 mi North 13.8 mph 20.7 mph N/A   Mostly Cloudy
6:00 PM 26.6 °F 15.2 °F 19.4 °F 74% 30.38 in 15.0 mi North 13.8 mph - N/A   Mostly Cloudy
7:00 PM 27 °F - 19 °F 62% 30.37 in 15 mi North 12.7 mph - -   Mostly Cloudy
7:00 PM 26.6 °F 14.7 °F 19.4 °F 74% 30.36 in 15.0 mi North 15.0 mph - N/A   Mostly Cloudy
8:00 PM 26.6 °F 14.3 °F 19.4 °F 74% 30.35 in 15.0 mi North 16.1 mph 24.2 mph N/A   Mostly Cloudy
9:00 PM 26.6 °F 14.7 °F 19.4 °F 74% 30.34 in 15.0 mi North 15.0 mph - N/A   Mostly Cloudy
10:00 PM 24.8 °F 14.6 °F 19.4 °F 80% 30.33 in 15.0 mi North 10.4 mph - N/A   Mostly Cloudy
11:00 PM 24.8 °F 13.4 °F 19.4 °F 80% 30.32 in 15.0 mi North 12.7 mph - N/A   Mostly Cloudy